Flag for U.S.A. Weather past 2 weeks in Lexington, North Carolina, U.S.A.

Now
91 °F

Scattered clouds.


Feels Like: 94 °F
Forecast: 68 / 90 °F
Wind: 5 mph from Southwest

Location: Davidson County Airport

Current Time: Sep 2, 2014 at 3:48:06 PM

Latest Report: Sep 2, 2014 at 2:55 PM


Visibility: 10 mi

Pressure: 30.02 "Hg

Humidity: 44%

Dew point: 67 °F

Location of LexingtonLocation

Historic Weather in Lexington — Graph

°F

Lexington temperature yesterday

Maximum temperature yesterday: 92 °F (at 3:15 PM)
Minimum temperature yesterday: 68 °F (at 7:15 AM)
Average temperature yesterday: 78 °F

Past Weeks' High & Low Weather Summary

 TemperatureHumidityPressure
High93 °F (Sep 2, 2:15 PM)100% (Aug 18, 5:55 PM)30.23 "Hg (Aug 18, 5:55 PM)
Low56 °F (Aug 27, 5:55 AM)39% (Aug 27, 2:50 PM)29.80 "Hg (Aug 18, 4:15 PM)
Average75 °F81%30.05 "Hg
* Reported Aug 18 2:15 PM — Sep 2 2:15 PM, Lexington, Weather by CustomWeather, © 2014

Note: Actual official high and low records may vary slightly from our data, if they occured in-between our weather recording intervals... More about our weather records

Advertising

Lexington weather history for previous 24 hours

 ConditionsComfort  
Time TempWeatherWind HumidityBarometerVisibility
2:15 PM
Sep 2
93 °FSunny.No wind43%30.03 "Hg10 mi
1:55 PM92 °FSunny.No wind44%30.04 "Hg10 mi
1:35 PM92 °FSunny.3 mph45%30.05 "Hg10 mi
1:15 PM91 °FSunny.5 mph46%30.05 "Hg10 mi
12:55 PM90 °FSunny.5 mph47%30.06 "Hg10 mi
12:35 PM89 °FSunny.3 mph49%30.07 "Hg10 mi
12:15 PM89 °FSunny.3 mph53%30.07 "Hg10 mi
11:55 AM88 °FSunny.5 mph55%30.07 "Hg10 mi
11:35 AM87 °FSunny.5 mph56%30.08 "Hg10 mi
11:15 AM87 °FSunny.3 mph58%30.08 "Hg10 mi
10:55 AM86 °FSunny.No wind60%30.09 "Hg10 mi
10:35 AM85 °FSunny.No wind62%30.09 "Hg10 mi
10:15 AM83 °FSunny.No wind69%30.09 "Hg10 mi
9:55 AM82 °FSunny.No wind71%30.09 "Hg10 mi
9:15 AM78 °FSunny.No wind79%30.09 "Hg10 mi
8:55 AM76 °FSunny.No wind82%30.09 "Hg10 mi
8:35 AM74 °FSunny.No wind87%30.09 "Hg10 mi
8:15 AM73 °FSunny.No wind93%30.09 "Hg10 mi
7:55 AM70 °FSunny.No wind100%30.09 "Hg10 mi
7:35 AM69 °FClear.No wind100%30.09 "Hg7 mi
7:15 AM68 °FClear.No wind100%30.09 "Hg7 mi
6:55 AM68 °FFog.No wind100%30.08 "Hg5 mi
6:15 AM69 °FClear.No wind100%30.08 "Hg7 mi
5:55 AM69 °FClear.No wind100%30.08 "Hg10 mi
5:35 AM68 °FClear.No wind100%30.07 "Hg7 mi
5:15 AM69 °FClear.No wind100%30.07 "Hg10 mi
4:55 AM68 °FClear.No wind100%30.07 "Hg10 mi
4:15 AM69 °FClear.No wind100%30.06 "Hg10 mi
3:55 AM69 °FClear.No wind100%30.07 "Hg10 mi
3:35 AM69 °FClear.No wind100%30.07 "Hg10 mi
3:15 AM69 °FClear.No wind100%30.07 "Hg10 mi
2:55 AM70 °FClear.No wind100%30.06 "Hg10 mi
2:35 AM70 °FClear.No wind100%30.07 "Hg10 mi
2:15 AM71 °FClear.No wind100%30.07 "Hg10 mi
1:55 AM72 °FClear.No wind92%30.07 "Hg10 mi
1:35 AM72 °FClear.No wind93%30.08 "Hg10 mi
1:15 AM73 °FClear.No wind90%30.07 "Hg10 mi
12:55 AM72 °FClear.No wind100%30.07 "Hg10 mi
12:15 AM73 °FClear.No wind96%30.08 "Hg10 mi
11:55 PM
Sep 1
72 °FClear.No wind100%30.08 "Hg10 mi
11:35 PM72 °FClear.No wind100%30.08 "Hg10 mi
11:15 PM73 °FClear.No wind100%30.08 "Hg10 mi
10:55 PM73 °FClear.No wind99%30.08 "Hg10 mi
10:15 PM74 °FClear.No wind91%30.08 "Hg10 mi
9:55 PM75 °FClear.No wind88%30.08 "Hg10 mi
9:15 PM76 °FClear.No wind83%30.08 "Hg10 mi
8:55 PM76 °FClear.No wind81%30.07 "Hg10 mi
8:15 PM78 °FSunny.No wind76%30.06 "Hg10 mi
7:55 PM79 °FSunny.No wind72%30.06 "Hg10 mi
7:35 PM80 °FSunny.No wind68%30.05 "Hg10 mi
7:15 PM80 °FSunny.No wind67%30.06 "Hg10 mi
6:55 PM81 °FSunny.No wind66%30.05 "Hg10 mi
6:35 PM82 °FSunny.No wind62%30.05 "Hg10 mi
6:15 PM87 °FSunny.No wind54%30.04 "Hg10 mi
5:55 PM89 °FSunny.3 mph50%30.05 "Hg10 mi
5:35 PM89 °FSunny.No wind48%30.05 "Hg10 mi
5:15 PM90 °FScattered clouds.No wind44%30.05 "Hg10 mi
4:55 PM91 °FScattered clouds.3 mph43%30.05 "Hg10 mi
4:15 PM91 °FSunny.3 mph41%30.06 "Hg10 mi
3:55 PM91 °FScattered clouds.3 mph43%30.07 "Hg10 mi
3:15 PM92 °FScattered clouds.3 mph42%30.08 "Hg10 mi
Weather by CustomWeather, © 2014

See weather overviewHow to use our weather pages